Погода в Отрадненском

Россия / Новосибирская область     55°31′44″N   78°32′57″E
темп.,
°C
ветер,
м/с
пор.,
м/с
влажн.,
%
обл.,
%
осадки,
мм/ч
давл.,
гПа
погр.,
м
16 июня, ср
ср1601:00+16юз46835 0.4 101377
04:00+15юз488716 0.3 1012113
07:00+16з3685100 0.3 1012137
10:00+21зюз4869100 0.0 1011363
13:00+24зюз686290 0.0 1011810
16:00+23юз7107019 0.4 1010807
19:00+22з588199 3.4 1009556
22:00+18з358799 3.5 101081
17 июня, чт
чт1701:00+16з228923 3.5 101019
04:00+17зюз369266 0.0 1010107
07:00+17зсз369360 0.0 1010155
10:00+20сз45725 0.0 1010448
13:00+23зсз345713 0.0 10101233
16:00+24з4655100 0.0 10091787
19:00+24сз36663 0.0 10081516
22:00+19ююз11772 0.0 100711
18 июня, пт
пт1801:00+17ююз3483100 0.1 100749
04:00+16юз3795100 2.7 1006150
07:00+17юз249169 2.8 1005113
10:00+22ююз347791 0.0 1005403
13:00+25ю556464 0.0 1003846
16:00+27ююз4655100 0.0 1002902
19:00+27ююв47675 0.0 999384
22:00+23ю1018630 0.0 998601
19 июня, сб
сб1901:00+16юз3492100 1.0 99968
04:00+15юв349129 0.1 99764
07:00+17ю249285 0.4 997140
10:00+21в1177100 0.0 996398
13:00+21с127665 0.0 996571
16:00+23зсз2276100 3.9 996476
19:00+15с699523 26.9 996253
22:00+13ссв71398100 2.6 998406
20 июня, вс
вс2001:00+12ссв4898100 3.7 999397
04:00+12с5898100 0.6 998332
07:00+12ссв4799100 0.9 1000238
10:00+13в1498100 0.1 1002398
13:00+13ю568599 0.2 1005893
16:00+15ю776498 0.0 10061502
19:00+12ю466999 0.0 1008824
22:00+10ююв368089 0.0 1009393